Location: El Centro
(32.7920°N, 115.5620°W)
Time: 14:46:26
(UTC-07:00)

Amateur Radio Satellites - All Passes

Search period start: 25 April 2015 14:16
Search period end: 26 April 2015 14:16
Location: El Centro, 32.7920°N, 115.5620°W

Satellite Date Start Highest point End Downlink Frequencies (MHz)
Time Altitude Azimuth
AIST 2 25 Apr 14:28:20 14:29:43 11° 251° (WSW) 14:30:50 435.215
Oscar 19 25 Apr 14:34:54 14:38:45 20° 267° (W) 14:42:26 437.125/150
VERMONT LUNAR 25 Apr 14:43:34 14:45:02 13° 141° (SE) 14:46:37 437.305
STARS 25 Apr 14:53:34 14:56:24 17° 93° (E) 14:59:25 437.465
ITUPSAT 1 25 Apr 15:06:02 15:10:19 33° 288° (WNW) 15:14:31 437.325
ITAMSAT 1 25 Apr 15:08:13 15:12:51 32° 263° (W) 15:17:27 435.822/435.867
HORYU 2 25 Apr 15:12:20 15:16:32 41° 73° (ENE) 15:20:47 437.375
JAS-2 25 Apr 15:26:27 15:33:53 49° 72° (ENE) 15:41:15 435.910
KKS-1 25 Apr 15:33:39 15:38:10 89° 90° (E) 15:42:40 437.445
Gurwin Techsat 1B 25 Apr 15:38:08 15:42:06 20° 267° (W) 15:45:53 435.225
BEESAT 25 Apr 15:38:13 15:41:05 16° 292° (WNW) 15:43:45 436.000
GONETS M04 25 Apr 15:39:03 15:46:15 31° 87° (E) 15:53:47
SWISSCUBE 25 Apr 15:41:11 15:43:32 13° 293° (WNW) 15:45:39 437.505
RS-15 25 Apr 15:48:46 15:58:58 42° 310° (NW) 16:09:11 29.354- 29.394
AO-7 25 Apr 15:56:28 16:04:45 85° 71° (ENE) 16:13:05 29.400- 29.500
Cosmos 2504 25 Apr 15:59:08 16:02:20 12° 298° (WNW) 16:04:40 435.465 / 435.565
CUSAT 1 25 Apr 16:18:07 16:18:58 11° 83° (E) 16:20:07 437.405
VERMONT LUNAR 25 Apr 16:18:49 16:22:11 88° 154° (SSE) 16:25:35 437.305
STARS 25 Apr 16:28:56 16:32:58 33° 287° (WNW) 16:36:56 437.465
PHONESAT 2.4 25 Apr 16:46:06 16:49:33 46° 148° (SSE) 16:53:00 2401.200-2431.200
HORYU 2 25 Apr 16:50:57 16:53:24 14° 268° (W) 16:55:38 437.375
DANDE 25 Apr 16:55:13 16:57:39 21° 88° (E) 17:00:39 436.750
JAS-2 25 Apr 17:12:14 17:19:03 31° 266° (W) 17:25:37 435.910
PCSat 25 Apr 17:15:07 17:19:53 31° 57° (ENE) 17:24:42 145.827
GONETS M04 25 Apr 17:34:28 17:42:50 47° 283° (WNW) 17:51:12
MOZHAYETS 4 25 Apr 17:36:34 17:41:07 65° 283° (WNW) 17:45:37
AO-7 25 Apr 17:53:44 17:58:34 16° 269° (W) 18:02:46 29.400- 29.500
CUTE-I 25 Apr 17:56:49 18:01:57 52° 74° (ENE) 18:07:07 437.470
VERMONT LUNAR 25 Apr 17:57:00 17:59:56 26° 349° (NNW) 18:02:51 437.305
CUSAT 1 25 Apr 17:58:09 18:01:08 27° 289° (WNW) 18:04:47 437.405
Cubesat XI-IV 25 Apr 18:06:18 18:11:34 66° 75° (ENE) 18:16:52 437.490
RS-15 25 Apr 18:11:43 18:15:47 12° 341° (NNW) 18:19:26 29.354- 29.394
Cosmos 2499 25 Apr 18:19:48 18:28:30 64° 93° (E) 18:37:07 435.465 / 435.565
ISS 25 Apr 18:24:19 18:26:55 22° 35° (NE) 18:29:33 145.825
PHONESAT 2.4 25 Apr 18:24:29 18:27:51 37° 343° (NNW) 18:31:13 2401.200-2431.200
DANDE 25 Apr 18:39:55 18:41:12 11° 296° (WNW) 18:42:20 436.750
M-CUBED/EXP-1 PRIME 25 Apr 18:40:07 18:43:54 37° 101° (ESE) 18:47:24 437.505
PCSat 25 Apr 18:58:37 19:03:14 28° 252° (WSW) 19:07:43 145.827
CUBESAT XI-V 25 Apr 19:12:58 19:17:35 82° 283° (WNW) 19:22:11 437.345
STRAND 1 25 Apr 19:20:03 19:24:58 49° 100° (E) 19:29:54 437.568
AUBIESAT-1 25 Apr 19:22:18 19:26:20 67° 289° (WNW) 19:30:01 437.475
GOMX 1 25 Apr 19:28:09 19:29:43 12° 68° (ENE) 19:31:32 467.674
HO-68 25 Apr 19:34:46 19:40:29 27° 66° (ENE) 19:46:24 435.675
VERMONT LUNAR 25 Apr 19:35:18 19:38:01 22° 5° (N) 19:40:45 437.305
BRITE-PL 25 Apr 19:39:00 19:42:27 27° 72° (ENE) 19:46:04 437.365/2234.400
CUTE-I 25 Apr 19:39:12 19:42:24 15° 268° (W) 19:45:18 437.470
PRISM 25 Apr 19:44:40 19:48:40 54° 285° (WNW) 19:52:39 437.425
SO-50 25 Apr 19:45:24 19:48:39 18° 49° (NE) 19:52:00 436.795
Cubesat XI-IV 25 Apr 19:50:09 19:52:12 12° 270° (W) 19:53:52 437.490
COMPASS 1 25 Apr 19:54:41 19:56:12 12° 69° (ENE) 19:57:57 437.405
ISS 25 Apr 20:00:29 20:03:17 26° 230° (SW) 20:06:02 145.825
DOVE 4 25 Apr 20:02:39 20:05:43 20° 70° (ENE) 20:09:01 437.250
PHONESAT 2.4 25 Apr 20:03:44 20:06:40 23° 360° (N) 20:09:34 2401.200-2431.200
Cosmos 2499 25 Apr 20:15:17 20:22:18 24° 290° (WNW) 20:28:51 435.465 / 435.565
M-CUBED/EXP-1 PRIME 25 Apr 20:16:18 20:18:25 13° 297° (WNW) 20:20:16 437.505
SEEDS 25 Apr 20:18:00 20:21:41 29° 73° (ENE) 20:25:25 437.485
CANX-2 25 Apr 20:26:04 20:30:13 51° 75° (ENE) 20:34:26 2200.000
RS-15 25 Apr 20:31:56 20:35:36 12° 19° (NNE) 20:39:50 29.354- 29.394
AAUSAT CUBESAT 2 25 Apr 20:34:50 20:38:33 31° 73° (ENE) 20:42:20 437.432
CUTE 1.7 + AOD 2 25 Apr 20:35:08 20:39:20 59° 77° (ENE) 20:43:35 437.475
CUBEBUG 2 25 Apr 20:45:11 20:47:43 16° 69° (ENE) 20:50:29 437.445
CINEMA 3 25 Apr 20:45:24 20:49:09 31° 73° (ENE) 20:53:08 145.822/145.860
STRAND 1 25 Apr 21:00:39 21:03:50 16° 292° (WNW) 21:06:46 437.568
GOMX 1 25 Apr 21:03:33 21:07:30 42° 262° (W) 21:11:35 467.674
UWE-3 25 Apr 21:10:02 21:13:31 25° 71° (ENE) 21:17:10 435.000/436.395/437.385
O/OREOS (USA 219) 25 Apr 21:12:26 21:15:28 18° 102° (ESE) 21:18:40 437.305
VERMONT LUNAR 25 Apr 21:12:38 21:15:56 52° 21° (NNE) 21:19:14 437.305
Cosmos 2491 25 Apr 21:18:13 21:23:07 17° 83° (E) 21:28:36 435.465 / 435.565
BRITE-PL 25 Apr 21:18:17 21:21:06 17° 267° (W) 21:23:49 437.365/2234.400
FUNcube-1 25 Apr 21:19:16 21:22:42 24° 71° (ENE) 21:26:18 145.935
HO-68 25 Apr 21:20:59 21:27:54 49° 260° (W) 21:34:49 435.675
SO-50 25 Apr 21:24:44 21:29:33 52° 245° (WSW) 21:34:15 436.795
UKube-1 25 Apr 21:25:22 21:28:03 17° 70° (ENE) 21:30:53 .
COMPASS 1 25 Apr 21:27:27 21:31:31 45° 261° (W) 21:35:37 437.405
YUBILEINY 25 Apr 21:31:02 21:39:06 41° 76° (ENE) 21:47:13 435.215
HUMSAT D 25 Apr 21:39:10 21:42:04 19° 71° (ENE) 21:45:08 437.325/437.525
DOVE 4 25 Apr 21:39:53 21:43:24 25° 266° (W) 21:46:57 437.250
PHONESAT 2.4 25 Apr 21:42:07 21:45:29 36° 17° (NNE) 21:48:50 2401.200-2431.200
Oscar 11 25 Apr 21:42:49 21:47:10 84° 258° (WSW) 21:51:33 145.826/435.025
ZACube-1 25 Apr 21:43:56 21:48:04 49° 75° (ENE) 21:52:22 437.345
DELFI C3 25 Apr 21:44:10 21:48:15 74° 76° (ENE) 21:52:19 145.870
VELOX 1 25 Apr 21:50:32 21:52:58 15° 69° (ENE) 21:55:36 145.980
SEEDS 25 Apr 21:54:31 21:57:32 18° 267° (W) 22:00:24 437.485
CANX-2 25 Apr 22:05:54 22:06:31 10° 270° (W) 22:06:51 2200.000
AISAT 25 Apr 22:07:19 22:10:50 25° 72° (ENE) 22:14:28 437.250
AAUSAT CUBESAT 2 25 Apr 22:11:32 22:14:16 16° 267° (W) 22:16:51 437.432
DX 1 25 Apr 22:16:45 22:21:03 76° 77° (ENE) 22:25:24 434.975-435.025
CUBEBUG 2 25 Apr 22:20:07 22:24:07 36° 263° (W) 22:28:14 437.445
CINEMA 3 25 Apr 22:23:36 22:26:30 17° 268° (W) 22:29:20 145.822/145.860
ANTELSAT 25 Apr 22:24:20 22:27:42 20° 93° (E) 22:31:11 437.575/2403.000
50 SAT 25 Apr 22:30:00 22:33:48 45° 75° (ENE) 22:37:41 437.505
RS-15 25 Apr 22:42:07 22:52:42 41° 49° (NE) 23:03:54 29.354- 29.394
ESTCUBE 1 25 Apr 22:46:18 22:50:23 36° 73° (ENE) 22:54:31 437.505/2401.250
UWE-3 25 Apr 22:46:33 22:50:00 22° 266° (W) 22:53:26 435.000/436.395/437.385
VERMONT LUNAR 25 Apr 22:50:28 22:53:16 24° 215° (SW) 22:56:02 437.305
O/OREOS (USA 219) 25 Apr 22:50:32 22:54:41 33° 295° (WNW) 22:58:48 437.305
QB50P2 25 Apr 22:55:19 22:58:25 20° 94° (E) 23:01:37 145.880/145.840
FUNcube-1 25 Apr 22:55:32 22:59:00 23° 266° (W) 23:02:25 145.935
UKube-1 25 Apr 23:00:03 23:03:57 33° 262° (W) 23:07:51 .
Cosmos 2491 25 Apr 23:10:26 23:19:09 77° 278° (W) 23:27:57 435.465 / 435.565
NANOSAT C BR1 25 Apr 23:12:44 23:16:32 31° 97° (E) 23:20:22 145.865
TIGRISAT 25 Apr 23:13:26 23:18:09 74° 101° (E) 23:22:46 435.000
HUMSAT D 25 Apr 23:14:00 23:17:39 28° 264° (W) 23:21:18 437.325/437.525
SPROUT 25 Apr 23:15:07 23:17:32 15° 70° (ENE) 23:20:09 437.525
POPSAT HIP 1 25 Apr 23:15:56 23:19:52 34° 98° (E) 23:23:48 437.405
UNISAT 6 25 Apr 23:17:51 23:22:34 85° 102° (ESE) 23:27:11 437.425
PHONESAT 2.4 25 Apr 23:20:20 23:23:47 47° 212° (SSW) 23:27:12 2401.200-2431.200
ZACube-1 25 Apr 23:23:31 23:24:50 11° 271° (W) 23:25:50 437.345
VELOX 1 25 Apr 23:25:09 23:29:15 38° 262° (W) 23:33:21 145.980
YUBILEINY 25 Apr 23:28:03 23:35:49 36° 272° (W) 23:43:20 435.215
CUBEBUG 1 25 Apr 23:29:30 23:33:50 79° 258° (WSW) 23:38:10 437.445
BUGSAT 1 25 Apr 23:39:14 23:43:13 44° 99° (E) 23:47:15 437.445
AISAT 25 Apr 23:43:52 23:47:23 23° 265° (W) 23:50:49 437.250
POLYITAN 1 25 Apr 23:45:30 23:49:50 84° 103° (ESE) 23:54:09 437.675
DUCHIFAT 1 25 Apr 23:46:13 23:50:31 82° 102° (ESE) 23:54:48 145.980
JUGNU 25 Apr 23:54:08 23:56:51 13° 165° (SSE) 23:59:40 437.505
Cosmos 2504 25 Apr 23:58:09 00:04:54 31° 73° (ENE) 00:11:26 435.465 / 435.565
ANTELSAT 26 Apr 00:00:22 00:04:33 32° 288° (WNW) 00:08:36 437.575/2403.000
QB50P1 26 Apr 00:03:57 00:08:11 57° 284° (WNW) 00:12:23 145.935-145.965
AIST 1 26 Apr 00:06:23 00:10:09 31° 92° (E) 00:13:58
TISAT 1 26 Apr 00:17:28 00:21:36 70° 77° (ENE) 00:25:47 437.305
ESTCUBE 1 26 Apr 00:24:28 00:27:24 16° 267° (W) 00:30:09 437.505/2401.250
QB50P2 26 Apr 00:30:38 00:34:18 27° 288° (WNW) 00:37:54 145.880/145.840
ITUPSAT 1 26 Apr 00:32:34 00:35:07 15° 68° (ENE) 00:37:54 437.325
NANOSAT C BR1 26 Apr 00:49:15 00:52:11 18° 290° (WNW) 00:54:58 145.865
SPROUT 26 Apr 00:49:27 00:53:23 35° 263° (W) 00:57:17 437.525
POPSAT HIP 1 26 Apr 00:52:45 00:55:29 16° 290° (WNW) 00:58:04 437.405
RS-15 26 Apr 00:54:16 01:05:37 56° 248° (WSW) 01:17:14 29.354- 29.394
BEESAT 26 Apr 01:01:25 01:05:35 31° 72° (ENE) 01:09:50 436.000
SWISSCUBE 26 Apr 01:03:48 01:08:09 36° 73° (ENE) 01:12:33 437.505
Oscar 19 26 Apr 01:11:22 01:14:57 19° 93° (E) 01:18:42 437.125/150
Cosmos 2491 26 Apr 01:14:49 01:17:49 11° 298° (WNW) 01:19:59 435.465 / 435.565
BUGSAT 1 26 Apr 01:16:37 01:18:22 12° 291° (WNW) 01:19:54 437.445
BEESAT 3 26 Apr 01:37:16 01:40:26 23° 112° (ESE) 01:43:44 437.485
BEESAT 2 26 Apr 01:39:22 01:42:17 20° 111° (ESE) 01:45:22 435.950
JUGNU 26 Apr 01:40:52 01:45:16 21° 174° (S) 01:49:40 437.505
AIST 1 26 Apr 01:45:10 01:47:55 16° 286° (WNW) 01:50:29
ITAMSAT 1 26 Apr 01:48:29 01:50:02 12° 90° (E) 01:51:56 435.822/435.867
Cosmos 2504 26 Apr 01:51:12 01:58:26 40° 271° (W) 02:05:08 435.465 / 435.565
SRMSAT 26 Apr 01:52:11 01:55:21 15° 166° (SSE) 01:58:35 437.500
GONETS M04 26 Apr 01:58:34 01:59:45 10° 61° (ENE) 02:01:49
ITUPSAT 1 26 Apr 02:08:03 02:12:41 47° 261° (W) 02:17:18 437.325
Gurwin Techsat 1B 26 Apr 02:18:18 02:22:20 23° 94° (E) 02:26:32 435.225
KKS-1 26 Apr 02:27:29 02:31:41 45° 74° (ENE) 02:35:57 437.445
BEESAT 26 Apr 02:39:48 02:43:30 21° 266° (W) 02:47:02 436.000
AIST 2 26 Apr 02:41:23 02:45:05 30° 113° (ESE) 02:48:53 435.215
SWISSCUBE 26 Apr 02:42:48 02:46:09 18° 267° (W) 02:49:20 437.505
Oscar 19 26 Apr 02:49:38 02:54:29 40° 287° (WNW) 02:59:17 437.125/150
CUSAT 1 26 Apr 02:55:39 03:01:03 21° 69° (ENE) 03:07:06 437.405
HORYU 2 26 Apr 03:10:23 03:11:42 11° 91° (E) 03:13:19 437.375
BEESAT 3 26 Apr 03:15:00 03:18:23 24° 306° (NW) 03:21:43 437.485
BEESAT 2 26 Apr 03:16:40 03:20:15 28° 305° (NW) 03:23:49 435.950
STARS 26 Apr 03:20:55 03:25:16 67° 259° (W) 03:29:39 437.465
ITAMSAT 1 26 Apr 03:24:55 03:30:03 64° 285° (WNW) 03:35:09 435.822/435.867
JUGNU 26 Apr 03:29:13 03:33:43 22° 184° (S) 03:38:10 437.505
DANDE 26 Apr 03:36:31 03:43:21 34° 74° (ENE) 03:50:58 436.750
SRMSAT 26 Apr 03:39:28 03:43:54 22° 176° (S) 03:48:22 437.500
GONETS M04 26 Apr 03:49:41 03:58:32 72° 82° (E) 04:07:20
Gurwin Techsat 1B 26 Apr 03:57:36 04:02:25 35° 288° (WNW) 04:07:10 435.225
AO-7 26 Apr 04:03:32 04:11:02 38° 98° (E) 04:18:40 29.400- 29.500
KKS-1 26 Apr 04:06:38 04:08:38 12° 269° (W) 04:10:21 437.445
Cosmos 2499 26 Apr 04:20:17 04:23:44 14° 64° (ENE) 04:27:37 435.465 / 435.565
AIST 2 26 Apr 04:20:28 04:23:44 20° 308° (NW) 04:26:55 435.215
JAS-2 26 Apr 04:27:18 04:33:17 55° 99° (E) 04:38:40 435.910
MOZHAYETS 4 26 Apr 04:33:42 04:38:20 70° 76° (ENE) 04:42:58
CUSAT 1 26 Apr 04:36:32 04:44:27 77° 264° (W) 04:52:45 437.405
HORYU 2 26 Apr 04:44:21 04:48:43 50° 286° (WNW) 04:53:01 437.375
JUGNU 26 Apr 05:18:48 05:22:07 15° 193° (SSW) 05:25:20 437.505
DANDE 26 Apr 05:19:14 05:26:45 49° 267° (W) 05:34:50 436.750
M-CUBED/EXP-1 PRIME 26 Apr 05:23:26 05:27:34 30° 67° (ENE) 05:31:48 437.505
SRMSAT 26 Apr 05:28:06 05:32:30 21° 186° (S) 05:36:52 437.500
GONETS M04 26 Apr 05:48:40 05:54:38 19° 277° (W) 06:00:03
AO-7 26 Apr 05:56:10 06:03:51 42° 294° (WNW) 06:11:25 29.400- 29.500
AUBIESAT-1 26 Apr 06:04:36 06:09:20 76° 72° (ENE) 06:14:10 437.475
Cosmos 2499 26 Apr 06:10:26 06:18:07 81° 265° (W) 06:25:16 435.465 / 435.565
CUBESAT XI-V 26 Apr 06:11:49 06:16:21 57° 75° (ENE) 06:20:54 437.345
JAS-2 26 Apr 06:13:52 06:17:49 17° 296° (WNW) 06:21:17 435.910
CUTE-I 26 Apr 06:18:48 06:23:22 30° 96° (E) 06:28:01 437.470
CUSAT 1 26 Apr 06:23:05 06:26:29 12° 275° (W) 06:29:14 437.405
Cubesat XI-IV 26 Apr 06:28:22 06:33:15 38° 98° (E) 06:38:12 437.490
PRISM 26 Apr 06:30:11 06:34:16 56° 76° (ENE) 06:38:21 437.425
STRAND 1 26 Apr 06:31:35 06:36:24 45° 73° (ENE) 06:41:16 437.568
M-CUBED/EXP-1 PRIME 26 Apr 06:58:24 07:02:21 25° 261° (W) 07:06:15 437.505
SRMSAT 26 Apr 07:18:10 07:21:03 14° 195° (SSW) 07:23:50 437.500
O/OREOS (USA 219) 26 Apr 07:26:25 07:29:21 17° 60° (ENE) 07:32:25 437.305
BRITE-PL 26 Apr 07:47:35 07:50:51 17° 92° (E) 07:54:29 437.365/2234.400
PCSat 26 Apr 07:51:42 07:57:04 71° 114° (ESE) 08:02:29 145.827
CUBESAT XI-V 26 Apr 07:53:15 07:54:13 10° 270° (W) 07:54:49 437.345
CUTE-I 26 Apr 07:58:54 08:03:23 28° 290° (WNW) 08:07:45 437.470
DOVE 4 26 Apr 08:08:13 08:08:29 10° 89° (E) 08:09:12 437.250
Cubesat XI-IV 26 Apr 08:09:04 08:13:09 22° 291° (WNW) 08:17:05 437.490
STRAND 1 26 Apr 08:12:33 08:15:53 17° 267° (W) 08:18:57 437.568
CANX-2 26 Apr 08:17:53 08:19:35 12° 91° (E) 08:21:31 2200.000
CUTE 1.7 + AOD 2 26 Apr 08:26:26 08:28:41 14° 92° (E) 08:31:07 437.475
CINEMA 3 26 Apr 08:46:00 08:48:08 13° 90° (E) 08:50:35 145.822/145.860
HO-68 26 Apr 08:53:28 09:00:11 42° 99° (E) 09:06:54 435.675
O/OREOS (USA 219) 26 Apr 09:04:51 09:08:55 34° 256° (WSW) 09:12:55 437.305
GOMX 1 26 Apr 09:08:20 09:13:34 75° 100° (E) 09:19:03 467.674
COMPASS 1 26 Apr 09:15:29 09:19:23 37° 97° (E) 09:23:17 437.405
ANTELSAT 26 Apr 09:21:21 09:22:23 11° 67° (ENE) 09:23:42 437.575/2403.000
BRITE-PL 26 Apr 09:24:31 09:29:33 50° 285° (WNW) 09:34:52 437.365/2234.400
Cosmos 2491 26 Apr 09:26:35 09:34:52 44° 76° (ENE) 09:43:13 435.465 / 435.565
DELFI C3 26 Apr 09:29:47 09:31:45 14° 92° (E) 09:33:56 145.870
Oscar 11 26 Apr 09:35:16 09:38:46 24° 95° (E) 09:42:19 145.826/435.025
PCSat 26 Apr 09:38:06 09:41:07 14° 311° (NW) 09:43:54 145.827
ZACube-1 26 Apr 09:38:31 09:40:56 15° 91° (E) 09:43:35 437.345
DOVE 4 26 Apr 09:41:35 09:46:46 75° 284° (WNW) 09:52:05 437.250
SEEDS 26 Apr 09:41:53 09:46:07 76° 283° (WNW) 09:50:18 437.485
CANX-2 26 Apr 09:51:44 09:55:46 41° 286° (WNW) 09:59:45 2200.000
AAUSAT CUBESAT 2 26 Apr 09:57:17 10:01:27 72° 283° (WNW) 10:05:35 437.432
SO-50 26 Apr 09:57:25 09:59:07 12° 108° (ESE) 10:01:08 436.795
CUTE 1.7 + AOD 2 26 Apr 10:00:50 10:04:47 35° 286° (WNW) 10:08:38 437.475
NANOSAT C BR1 26 Apr 10:02:43 10:04:44 14° 69° (ENE) 10:06:58 145.865
POPSAT HIP 1 26 Apr 10:05:54 10:08:15 15° 70° (ENE) 10:10:47 437.405
TIGRISAT 26 Apr 10:07:53 10:11:58 36° 73° (ENE) 10:16:13 435.000
DX 1 26 Apr 10:10:31 10:13:31 19° 94° (E) 10:16:38 434.975-435.025
UNISAT 6 26 Apr 10:12:22 10:16:36 43° 74° (ENE) 10:20:59 437.425
CUBEBUG 2 26 Apr 10:15:05 10:19:50 65° 100° (E) 10:24:32 437.445
CINEMA 3 26 Apr 10:20:47 10:25:42 56° 285° (WNW) 10:30:37 145.822/145.860
YUBILEINY 26 Apr 10:25:44 10:34:13 55° 91° (E) 10:42:47 435.215
BUGSAT 1 26 Apr 10:26:21 10:28:53 17° 71° (ENE) 10:31:35 437.445
POLYITAN 1 26 Apr 10:34:26 10:38:13 34° 74° (ENE) 10:42:05 437.675
DUCHIFAT 1 26 Apr 10:34:34 10:38:18 32° 73° (ENE) 10:42:05 145.980
UWE-3 26 Apr 10:39:40 10:44:23 82° 284° (WNW) 10:49:02 435.000/436.395/437.385
HO-68 26 Apr 10:41:32 10:47:44 31° 293° (WNW) 10:53:45 435.675
ESTCUBE 1 26 Apr 10:46:21 10:46:53 10° 90° (E) 10:47:44 437.505/2401.250
FUNcube-1 26 Apr 10:47:14 10:51:51 86° 282° (WNW) 10:56:24 145.935
GOMX 1 26 Apr 10:49:17 10:51:14 12° 292° (WNW) 10:52:50 467.674
UKube-1 26 Apr 10:51:31 10:55:46 55° 100° (E) 11:00:01 .
QB50P1 26 Apr 10:52:09 10:56:15 57° 76° (ENE) 11:00:24 145.935-145.965
COMPASS 1 26 Apr 10:52:31 10:54:47 14° 290° (WNW) 10:56:50 437.405
ANTELSAT 26 Apr 10:54:14 10:58:40 60° 260° (W) 11:03:15 437.575/2403.000
ISS 26 Apr 10:59:04 11:02:17 71° 134° (SE) 11:05:32 145.825
HUMSAT D 26 Apr 11:01:53 11:06:12 65° 100° (E) 11:10:27 437.325/437.525
DELFI C3 26 Apr 11:03:23 11:07:03 33° 286° (WNW) 11:10:38 145.870
Oscar 11 26 Apr 11:11:25 11:14:52 23° 288° (WNW) 11:18:11 145.826/435.025
ZACube-1 26 Apr 11:13:11 11:17:32 42° 286° (WNW) 11:21:49 437.345
QB50P2 26 Apr 11:18:28 11:22:39 64° 259° (W) 11:26:51 145.880/145.840
VELOX 1 26 Apr 11:19:43 11:24:05 54° 100° (E) 11:28:27 145.980
CUBEBUG 1 26 Apr 11:23:15 11:26:55 26° 96° (E) 11:30:38 437.445
Cosmos 2491 26 Apr 11:23:49 11:31:33 34° 272° (W) 11:39:03 435.465 / 435.565
SO-50 26 Apr 11:34:41 11:39:12 55° 301° (WNW) 11:43:54 436.795
NANOSAT C BR1 26 Apr 11:36:21 11:40:17 38° 262° (W) 11:44:13 145.865
BEESAT 3 26 Apr 11:37:06 11:41:04 49° 59° (ENE) 11:44:59 437.485
AISAT 26 Apr 11:37:51 11:42:20 86° 283° (WNW) 11:46:48 437.250
BEESAT 2 26 Apr 11:39:34 11:43:29 43° 58° (ENE) 11:47:22 435.950
POPSAT HIP 1 26 Apr 11:40:01 11:43:52 35° 262° (W) 11:47:44 437.405
DX 1 26 Apr 11:45:58 11:49:49 30° 288° (WNW) 11:53:34 434.975-435.025
TIGRISAT 26 Apr 11:46:00 11:48:54 16° 268° (W) 11:51:39 435.000
50 SAT 26 Apr 11:46:01 11:50:00 56° 284° (WNW) 11:53:54 437.505
UNISAT 6 26 Apr 11:51:13 11:53:41 14° 269° (W) 11:55:54 437.425
CUBEBUG 2 26 Apr 11:54:36 11:56:02 11° 293° (WNW) 11:57:09 437.445
AIST 1 26 Apr 11:54:54 11:59:10 80° 82° (E) 12:03:27
BUGSAT 1 26 Apr 12:00:43 12:04:12 27° 263° (W) 12:07:38 437.445
TISAT 1 26 Apr 12:07:43 12:10:14 16° 93° (E) 12:12:57 437.305
DUCHIFAT 1 26 Apr 12:11:39 12:14:14 15° 267° (W) 12:16:39 145.980
POLYITAN 1 26 Apr 12:11:47 12:14:18 15° 268° (W) 12:16:37 437.675
ESTCUBE 1 26 Apr 12:19:46 12:24:09 54° 285° (WNW) 12:28:31 437.505/2401.250
YUBILEINY 26 Apr 12:24:13 12:31:32 27° 289° (WNW) 12:38:33 435.215
Oscar 19 26 Apr 12:24:23 12:27:46 19° 68° (ENE) 12:31:21 437.125/150
Cosmos 2504 26 Apr 12:29:34 12:36:59 33° 87° (E) 12:44:38 435.465 / 435.565
UKube-1 26 Apr 12:30:26 12:31:30 11° 293° (WNW) 12:32:17 .
ISS 26 Apr 12:37:36 12:39:00 12° 331° (NNW) 12:40:20 145.825
SPROUT 26 Apr 12:40:07 12:44:21 54° 99° (E) 12:48:37 437.525
AIST 2 26 Apr 12:45:07 12:49:21 72° 62° (ENE) 12:53:28 435.215
VELOX 1 26 Apr 12:58:46 13:00:14 11° 292° (WNW) 13:01:26 145.980
CUBEBUG 1 26 Apr 12:59:48 13:03:09 21° 289° (WNW) 13:06:24 437.445
RS-15 26 Apr 13:01:20 13:10:37 36° 108° (ESE) 13:20:16 29.354- 29.394
ITAMSAT 1 26 Apr 13:02:35 13:04:31 12° 66° (ENE) 13:06:46 435.822/435.867
BEESAT 26 Apr 13:08:29 13:09:37 11° 90° (E) 13:11:06 436.000
SWISSCUBE 26 Apr 13:10:18 13:12:23 13° 91° (E) 13:14:45 437.505
BEESAT 3 26 Apr 13:18:11 13:18:41 10° 251° (WSW) 13:18:54 437.485
BEESAT 2 26 Apr 13:19:32 13:21:15 12° 251° (WSW) 13:22:44 435.950
Gurwin Techsat 1B 26 Apr 13:35:15 13:39:22 24° 70° (ENE) 13:43:36 435.225
TISAT 1 26 Apr 13:42:18 13:46:09 33° 287° (WNW) 13:49:56 437.305
Oscar 19 26 Apr 14:01:56 14:06:49 43° 261° (W) 14:11:44 437.125/150
